Location: Bli��� Lhota
(48.7570°N, 14.0120°E)
Time: 03:05:51
(UTC+00:00)

Lacrosse 4 Rocket - Pass Details

Date: 18 September 2020
Orbit: 543 x 615 km, 68.0° (Epoch: 24 October)

Event Time Altitude Azimuth Distance (km) Brightness Sun altitude
Rises 19:20:24 0° 335° (NNW) 2,717 5.7 -21.4°
Reaches altitude 10° 19:23:34 10° 2° (N) 1,822 4.3 -21.9°
Maximum altitude 19:25:45 14° 35° (NE) 1,580 3.6 -22.2°
Enters shadow 19:25:48 14° 35° (NE) 1,581 3.6 -22.2°
